User: anonymous   Login
Location: Theydon Bois
(51.6750°N, 0.1050°E)
Time: 20:38:43
(UTC+01:00)
Language:

Resurs 1-3 - Orbit

View from above orbital plane
View from above orbital plane
View from above satellite
View from above satellite

Ground track
Ground track

The orbit data is extracted from the following two-line orbital elements,

1 23342U 94074A   18200.19574669 -.00000016  00000-0  48402-5 0  9997
2 23342  98.0287 244.1433 0000847  97.1930 262.9377 14.79341635276474
Epoch (UTC): 19 July 2018 04:41:52
Eccentricity: 0.0000847
inclination: 98.0287°
perigee height: 631 km
apogee height: 632 km
right ascension of ascending node: 244.1433°
argument of perigee: 97.1930°
revolutions per day: 14.79341635
mean anomaly at epoch: 262.9377°
orbit number at epoch: 27647

The dashed part of the orbit path shows where the satellite is in the earth's shadow,  

DLR